{"data":{"norad_id":56120,"intl_designator":"2023-046AD","name":"STARLINK-6079","alt_names":[],"object_type":"PAYLOAD","status":"ACTIVE","operator":null,"country":"US","launch_date":"2023-03-29","launch_site_code":"AFETR","launch_vehicle":null,"mission":null,"orbit_class":"UNKNOWN","rcs_meters":null,"size_class":null,"mass_kg":null,"dimensions":null,"purposes":["comms"],"wikipedia_slug":null,"has_3d_model":false,"image_url":null,"decayed_at":null,"tle_current":{"epoch":"2026-09-20T21:51:37.664640Z","epoch_age_seconds":73397,"freshness":"FRESH","line1":"1 56120U 23046AD  26263.91085260  .00000579  00000+0  30554-4 0  9990","line2":"2 56120  43.0018 124.7468 0000699 262.6276  97.4496 15.27561947192052","mean_motion":15.27561947,"eccentricity":6.99e-5,"inclination_deg":43.0018,"raan_deg":124.7468,"arg_perigee_deg":262.6276,"mean_anomaly_deg":97.4496,"bstar":3.0554e-5,"rev_number":19205,"period_min":94.267862774929,"perigee_km":482.62355306182,"apogee_km":483.58275443531,"semimajor_km":6861.2401537486,"source":"CELESTRAK","updated_at":"2026-09-21T09:00:33.385456Z"}}}